Regional Weather Roundup
Issued by NWS Albany, NY

Home | Current Version | Previous Version | Text Only | Print | Product List | Glossary On
Versions: 1 2 3 4 5 6 7 8 9 10 11 12 13 14 15 16 17 18 19 20 21 22 23 24 25 26 27 28 29 30 31 32 33 34 35 36 37 38 39 40 41 42 43 44 45 46 47 48 49 50
000
ASUS41 KALY 230510
RWRALY

NEW YORK STATE HOURLY WEATHER ROUNDUP
NATIONAL WEATHER SERVICE ALBANY NY
100 AM EDT WED JUL 23 2014

NOTE: "FAIR" INDICATES FEW OR NO CLOUDS BELOW 12,000 FEET WITH NO
SIGNIFICANT WEATHER AND/OR NO OBSTRUCTIONS TO VISIBILITY.

NYZ032-033-038>043-046>054-057>066-NYZ062>081-230600-
EAST


CITY           SKY/WX    TMP DP  RH WIND       PRES   REMARKS
ALBANY         CLEAR     76  69  79 S7        29.97S
GLENS FALLS    CLEAR     75  70  84 S6        29.94S
POUGHKEEPSIE   CLEAR     72  68  87 CALM      30.00S
NEWBURGH       PTCLDY    75  70  83 SW6       30.04
MONTGOMERY     CLEAR     73  69  87 S6        30.02S
WHITE PLAINS   CLEAR     75  64  68 VRB6      30.04S
ISLIP          CLEAR     73  65  75 SW8       30.03F
NEW YORK CITY  PTCLDY    77  62  59 SW13      30.03F
CENTRAL PARK   CLEAR     76  63  64 VRB6      30.06F
$$

NYZ005>009-017-018-044>046-055-056-230600-
CENTRAL


CITY           SKY/WX    TMP DP  RH WIND       PRES   REMARKS
FULTON         CLEAR     76  69  79 S8        29.92F
SYRACUSE       PTCLDY    80  69  69 VRB7G20   29.93F
ROME           CLEAR     75  68  78 CALM      29.96S
ELMIRA         CLEAR     72  69  90 CALM      30.00S
BINGHAMTON     CLEAR     72  67  84 SW7       30.04F
MONTICELLO     CLEAR     66  66 100 CALM      30.08S
$$

NYZ026>034-041>043-230600-
NORTH


CITY           SKY/WX    TMP DP  RH WIND       PRES   REMARKS
WATERTOWN      CLEAR     75  65  70 VRB7      29.88F
FORT DRUM      NOT AVBL
MASSENA        CLEAR     72  64  76 S9        29.84F
SARANAC LAKE   PTCLDY    59  58  96 CALM      29.95F
PLATTSBURGH    CLEAR     68  64  87 CALM      29.87S
$$

NYZ001>004-010>016-019>021-230600-
WEST


CITY           SKY/WX    TMP DP  RH WIND       PRES   REMARKS
NIAGARA FALLS  CLEAR     74  66  76 SW8       29.93S
BUFFALO        PTCLDY    73  66  78 SW6       29.95F
DUNKIRK        CLEAR     76  67  73 SW10      29.96F
JAMESTOWN      CLEAR     70  66  88 S5        30.04F
WELLSVILLE     CLEAR     73  66  78 SW7       30.08S
ROCHESTER      CLEAR     72  69  90 W3        29.94F
PENN YAN       CLEAR     75  69  81 S7        29.99F
$$

             KEY
       WCI = WIND CHILL INDEX
       VSB = VISIBILITY
       HX  = HEAT INDEX
$$



USA.gov is the U.S. government's official web portal to all federal, state and local government web resources and services.